Regional Weather Roundup
Issued by NWS State College, PA

Home | Current Version | Previous Version | Text Only | Print | Product List | Glossary Off
Versions: 1 2 3 4 5 6 7 8 9 10 11 12 13 14 15 16 17 18 19 20 21 22 23 24 25 26 27 28 29 30 31 32 33 34 35 36 37 38 39 40 41 42 43 44 45 46 47 48 49 50

000
ASUS41 KCTP 240310
RWRCTP

REGIONAL WEATHER ROUNDUP
NATIONAL WEATHER SERVICE STATE COLLEGE PA
1100 PM EDT WED APR 23 2014

Note: "fair" indicates few or no clouds below 12,000 feet with no
significant weather and/or obstructions to visibility.

* = STATION THAT DOES NOT REPORT PRECIPITATION /E.G. RAIN...SNOW...ETC/
    THUNDER OR FOG.

PAZ002>004-007>009-013>016-020>023-029>032-240400-
WESTERN PENNSYLVANIA

CITY           SKY/WX    TMP DP  RH WIND       PRES   REMARKS
ERIE           CLEAR     38  26  62 W10       30.10R
MEADVILLE      NOT AVBL
FRANKLIN*      CLEAR     34  14  44 W5        30.09R
NEW CASTLE     FAIR      36  13  39 CALM      30.12R
BEAVER COUNTY  NOT AVBL
BUTLER*        CLEAR     37  14  38 NW5       30.10R
PITTSBURGH INT CLEAR     41  20  43 NW9       30.08R
PITTSBURGH     CLEAR     43  20  39 NW10      30.07R
INDIANA*       CLEAR     37  19  48 NW6       30.06R
LATROBE        CLEAR     37  28  70 CALM      30.09R
WASHINGTON CO* CLEAR     41  25  52 NW5       30.11S
$$

PAZ004>006-010>012-017>019-024>028-033>037-041-042-045-046-049>053-240400-
CENTRAL PENNSYLVANIA

CITY           SKY/WX    TMP DP  RH WIND       PRES   REMARKS
BRADFORD       CLEAR     34  24  67 W5        29.99R
DUBOIS         CLEAR     37  23  56 W12       30.01R
CLEARFIELD     CLEAR     38  25  59 SW6       30.01R
JOHNSTOWN      CLEAR     36  19  50 W15       30.01R
ALTOONA        CLEAR     41  26  55 NW10      30.01R
STATE COLLEGE  CLEAR     42  20  41 W12G20    29.99R
WILLIAMSPORT   CLEAR     41  26  55 NW8       29.96R
SELINSGROVE    CLEAR     39  30  70 CALM      29.96R
FT INDIANTOWN  CLEAR     46  28  48 W10G18    29.93R
CAPITAL CITY   CLEAR     45  28  51 W10       29.96R
HARRISBURG     CLEAR     46  29  51 NW15      29.95R
YORK           CLEAR     44  29  55 W9        29.96R
$$

PAZ038>040-043-044-047-048-054-055-060>062-067>071-240400-
EASTERN PENNSYLVANIA

CITY           SKY/WX    TMP DP  RH WIND       PRES   REMARKS
SCRANTON       MOCLDY    40  25  55 W13G18    29.90S
MOUNT POCONO   CLEAR     36  25  64 NW20G28   29.82R
ALLENTOWN      CLEAR     44  23  43 NW10G18   29.91S
QUAKERTOWN*    CLEAR     41  25  52 W8        29.92R
READING        CLEAR     43  28  55 NW5       29.93R
LANCASTER      CLEAR     40  29  64 W9        29.93S
COATESVILLE    NOT AVBL
POTTSTOWN      CLEAR     43  28  55 N8        29.94R
BLUE BELL      CLEAR     46  27  46 NW8G18    29.91R
DOYLESTOWN     CLEAR     42  26  53 NW12G23   29.89R
WILLOW GROVE   NOT AVBL
NORTH PHILA    CLEAR     47  24  40 NW16G24   29.92R
PHILADELPHIA   PTCLDY    48  24  39 N14G26    29.92R
$$



USA.gov is the U.S. government's official web portal to all federal, state and local government web resources and services.